Probability
3 3 5 11 15 11 5 4 4 4 4 4 3 4 5 6 6 4 3 3 3 3 3 3 3 3 3 3 3 3 3 3 3 3 3 3 3 3 3 3 3 2 1
2 3 4 10 15 11 7 5 4 3 3 3 3 4 4 5 4 4 3 3 3 3 3 3 3 3 3 3 3 3 3 3 3 3 3 3 3 3 3 3 3 3 2
1 2 5 10 12 11 8 6 4 4 4 4 4 5 5 4 3 3 3 3 3 3 3 3 3 3 3 3 3 3 3 3 3 3 3 3 3 3 3 3 4 4 4
0 2 5 9 10 10 8 5 4 5 7 7 6 6 5 4 3 3 3 3 3 3 3 3 3 3 3 3 3 3 3 3 3 3 3 3 3 3 3 4 4 4 5
2 3 5 8 9 9 9 6 4 5 7 8 7 6 4 3 3 3 3 3 3 3 3 3 3 3 3 3 3 3 3 3 3 3 3 3 3 3 3 3 4 5 7
3 3 4 5 6 7 10 12 9 6 5 6 8 8 7 5 4 4 3 3 3 3 3 3 3 3 3 3 3 3 3 4 4 4 4 4 4 3 3 3 3 6 9
2 2 3 4 4 5 16 29 25 12 7 6 9 12 10 7 6 4 3 3 3 4 4 5 4 4 3 3 3 3 4 5 6 6 6 6 6 6 7 7 6 6 9
1 1 2 3 4 8 26 46 43 27 18 13 12 14 10 6 4 4 3 3 5 9 14 17 14 8 7 7 6 4 3 4 5 5 5 8 13 22 28 31 29 26 22
3 3 3 3 3 10 34 59 61 52 45 33 23 18 13 10 10 8 6 8 14 18 22 27 22 10 9 10 7 4 2 1 1 1 2 6 16 31 48 62 69 66 60
5 4 3 3 3 8 27 51 65 71 69 55 35 21 16 17 17 13 11 16 22 18 15 15 12 6 5 5 4 2 1 0 0 0 0 3 10 18 34 59 79 86 87
5 4 3 3 3 5 12 25 40 54 57 46 28 14 11 11 11 10 14 22 21 10 3 1 1 1 0 0 0 0 0 0 0 0 0 1 2 2 9 26 47 64 74
4 3 3 3 3 3 3 5 11 18 20 17 10 4 2 2 2 3 11 20 15 4 0 0 0 0 0 0 0 0 0 0 0 0 0 0 0 0 1 6 16 28 38
3 3 3 3 3 2 2 1 1 1 1 1 1 0 0 0 0 0 5 8 6 1 0 0 0 0 0 0 0 0 0 0 0 0 0 0 0 0 0 1 4 9 13
3 3 3 3 2 1 1 0 0 0 0 0 0 0 0 0 0 0 0 0 0 0 0 0 0 0 0 0 0 0 0 0 0 0 0 0 0 0 0 0 1 3 5
3 3 3 3 2 1 0 0 0 0 0 0 0 0 0 0 0 0 0 0 0 0 0 0 0 0 0 0 0 0 0 0 0 0 0 0 0 0 0 0 0 1 2
9 6 3 3 3 2 1 0 0 0 0 0 0 0 0 0 0 0 0 0 0 0 0 0 0 0 0 0 0 0 0 0 0 0 0 0 0 0 0 0 0 0 1
18 10 4 3 3 3 2 1 0 0 0 0 0 0 0 0 0 0 0 0 0 0 0 0 0 0 0 0 0 0 0 0 0 0 0 0 0 0 0 0 0 2 4
20 12 5 3 3 3 2 1 0 0 0 0 0 0 0 0 0 0 0 0 0 0 0 0 0 0 0 0 0 0 0 0 0 0 0 0 0 0 0 0 1 5 10
15 9 4 2 2 2 1 0 0 0 0 0 0 0 0 0 0 0 0 0 0 0 0 0 0 0 0 0 0 0 0 0 0 0 0 0 0 0 0 0 1 4 8
7 5 2 1 0 0 0 0 0 0 0 0 0 0 0 0 0 0 0 0 0 0 0 0 0 0 0 0 0 0 0 0 0 0 0 0 0 0 0 0 0 1 2
1 1 1 0 0 0 0 0 0 0 0 0 0 0 0 0 0 0 1 1 1 1 1 1 0 0 0 0 0 0 0 0 0 0 0 0 0 0 0 0 0 0 0
0 0 0 0 0 0 0 0 0 0 0 0 0 0 0 0 0 0 1 2 2 2 2 1 0 0 0 0 0 0 0 0 0 0 0 0 0 0 0 0 0 0 0
0 0 0 0 0 0 0 0 0 0 0 0 0 0 0 0 0 0 1 1 1 1 1 1 0 0 0 0 0 0 0 0 0 0 0 0 0 0 0 0 0 0 0
0 0 0 0 0 0 0 0 0 0 0 0 0 0 0 0 0 0 0 0 0 0 0 0 0 0 0 0 0 0 0 0 0 0 0 0 0 0 0 0 0 0 0
0 0 0 0 0 0 0 0 0 0 0 0 0 0 0 0 0 0 0 0 0 0 0 0 0 0 0 0 0 0 0 0 0 0 0 0 0 0 0 0 0 0 0
0 0 0 0 0 0 0 0 0 0 0 0 0 0 0 0 0 0 0 0 0 0 0 0 0 0 0 0 0 0 0 0 0 0 0 0 0 0 0 0 0 0 0
Wind_Speed
4 6 10 14 15 9 6 6 8 9 9 9 9 9 9 9 9 8 9 9 9 9 8 7 6 6 6 7 7 6 6 5 4 3 3 4 4 6 6 5 5 5 6
5 2 3 6 14 12 10 8 8 8 8 9 8 8 7 7 7 6 6 6 6 7 7 6 6 6 5 3 3 3 3 3 2 1 1 1 3 5 7 8 8 7 8
7 5 3 3 8 10 11 9 9 9 8 8 8 9 7 6 5 4 4 3 3 3 4 3 2 3 3 3 4 4 4 4 4 3 4 3 3 4 7 9 10 10 11
3 1 3 5 5 7 9 9 8 9 10 9 8 9 8 6 5 3 3 2 1 2 2 2 2 3 3 3 4 5 5 6 5 5 3 3 4 6 7 8 11 12 13
2 4 2 5 9 8 7 10 8 10 11 10 9 8 7 4 4 5 6 4 4 4 3 1 1 2 3 4 4 6 6 7 8 5 4 4 4 6 9 4 10 14 14
3 6 3 3 6 8 7 8 5 5 8 9 9 9 6 2 3 6 2 2 4 5 3 4 4 5 6 6 6 7 7 7 6 4 4 5 6 9 10 7 10 13 13
4 4 5 4 3 4 6 9 4 3 4 4 5 7 7 5 3 7 4 4 3 2 4 2 3 4 7 7 8 9 9 9 6 4 5 5 6 10 11 11 12 13 15
3 3 4 4 3 4 4 7 4 2 2 2 3 5 5 5 6 6 2 3 4 3 5 7 4 6 7 6 7 8 8 8 6 4 6 5 6 10 12 14 12 12 12
3 4 3 3 3 4 8 10 6 5 4 3 3 4 4 3 2 2 0 2 2 6 7 7 7 5 3 6 8 9 11 11 7 5 6 5 8 11 12 12 11 11 9
3 4 4 4 3 3 5 8 9 10 9 7 6 4 3 3 3 3 2 3 7 9 7 6 2 4 8 10 12 11 9 7 4 4 4 6 11 13 12 12 11 10 10
4 4 3 3 3 3 4 5 7 7 8 7 5 6 5 3 3 3 3 4 6 6 7 8 8 8 10 11 13 14 8 2 3 3 3 8 12 14 14 12 12 12 12
5 4 3 3 3 3 3 4 3 3 3 3 2 3 3 3 3 4 4 6 7 8 8 10 11 11 7 4 5 7 3 3 3 3 3 9 11 13 14 14 14 14 13
6 5 5 5 4 4 3 2 1 1 2 1 1 2 3 3 3 3 3 4 4 5 4 6 5 3 3 3 3 3 4 3 3 3 5 12 14 14 15 14 14 15 14
8 8 6 5 4 4 3 2 1 1 1 0 0 1 2 2 2 2 2 3 3 3 3 3 2 3 4 4 5 6 7 5 5 4 6 14 15 16 16 16 15 14 15
8 6 5 5 4 3 2 2 1 0 1 1 1 1 2 2 2 2 1 1 1 2 2 3 3 4 5 6 6 6 7 8 8 6 5 13 15 15 16 15 16 16 16
7 5 4 4 3 4 3 3 2 2 2 1 0 0 2 2 2 1 0 1 2 2 2 2 3 3 4 5 6 6 7 7 8 9 8 10 15 14 13 13 14 16 17
8 6 5 4 4 4 4 4 2 2 2 1 0 0 2 1 0 0 1 2 3 3 4 4 5 4 4 5 6 6 7 7 8 9 8 7 9 11 12 12 12 13 15
6 6 6 6 6 5 4 3 1 1 1 1 1 1 1 2 1 1 2 3 4 4 5 5 5 5 5 5 6 7 6 6 7 8 7 6 6 6 8 10 12 12 12
7 7 7 6 6 7 6 3 2 1 1 1 2 2 3 4 5 4 4 4 6 5 4 4 4 4 5 7 7 8 6 6 7 6 6 6 6 5 5 7 9 9 11
5 3 1 2 5 5 5 4 4 4 4 4 4 4 4 4 5 4 3 4 4 4 5 4 5 6 6 8 8 8 7 6 6 5 5 5 4 5 4 4 4 5 11
7 7 8 8 8 5 3 2 2 3 3 3 3 4 4 4 4 3 2 3 3 3 5 7 6 8 7 5 6 8 7 8 6 6 4 4 4 4 5 4 3 4 6
8 9 9 8 6 4 3 2 2 2 2 2 1 2 2 2 2 1 1 2 3 3 5 6 6 6 5 4 5 7 9 10 6 4 5 5 5 5 5 4 5 4 5
8 8 8 6 7 5 5 4 3 3 1 1 2 2 2 2 2 2 2 3 4 3 4 5 4 4 6 5 4 5 7 11 9 6 4 4 5 5 5 5 5 5 6
7 8 8 7 7 5 5 4 4 2 1 2 3 3 3 4 5 5 5 5 4 3 3 3 4 3 5 6 5 6 8 9 8 11 6 5 6 6 5 5 6 8 8
7 7 7 7 7 5 5 5 4 2 1 2 2 4 5 5 5 6 6 5 5 4 4 5 4 4 4 8 7 5 5 5 7 8 13 11 8 6 5 6 7 7 7
7 6 6 7 6 4 5 4 3 2 2 3 4 4 5 5 5 6 7 6 6 5 5 5 6 7 7 10 10 9 8 8 7 7 10 15 13 9 6 7 7 7 6
Wind_Direction
215 208 187 148 127 126 125 123 122 124 122 116 107 102 109 115 119 128 135 140 144 148 148 141 144 149 154 155 149 137 123 112 108 110 124 139 158 162 166 170 177 176 180
80 356 214 146 121 132 140 140 132 129 126 126 122 116 113 112 114 125 142 149 151 153 155 161 167 170 172 166 149 135 129 131 143 148 223 166 192 193 195 205 206 192 194
63 2 340 106 109 125 132 140 142 141 137 135 132 125 117 113 121 135 150 149 134 136 137 133 126 116 73 38 21 17 17 15 12 357 354 11 311 248 221 219 210 198 205
68 56 86 104 102 111 125 135 147 150 145 140 137 135 131 133 135 142 133 130 131 134 127 113 73 37 25 13 352 343 346 346 345 347 8 357 335 317 308 242 205 208 213
25 86 103 148 130 126 143 142 156 163 154 155 149 142 137 147 177 179 169 180 217 203 185 193 238 272 281 295 307 314 323 330 327 340 342 327 321 315 324 269 217 223 217
71 80 101 92 117 130 147 138 155 166 164 172 160 142 132 131 330 304 274 235 239 241 227 224 220 242 263 276 292 303 308 310 319 329 327 322 320 316 315 307 273 256 233
104 88 89 66 56 99 156 133 143 175 185 186 159 137 149 158 189 274 310 318 308 272 288 287 282 283 282 289 299 303 301 303 307 317 312 311 305 301 305 299 298 281 241
74 84 91 91 69 60 79 100 116 152 192 189 145 135 158 190 205 234 269 292 294 328 341 316 313 291 289 308 317 322 326 327 325 321 314 312 301 301 310 305 297 306 261
98 108 92 73 91 87 77 76 82 81 74 88 121 143 171 196 171 149 151 294 296 51 28 4 18 338 21 36 26 35 30 18 11 5 344 339 320 318 321 314 303 306 305
110 95 83 75 70 65 73 84 87 88 82 75 68 69 76 80 108 114 106 63 65 69 63 70 38 50 57 44 38 41 39 24 2 354 338 335 335 338 342 338 326 312 305
104 89 94 100 94 83 78 90 91 88 83 75 67 61 67 65 70 73 64 63 61 62 58 54 47 43 39 30 29 32 33 12 354 319 305 326 337 339 337 336 333 327 315
143 159 155 151 121 90 71 70 65 66 70 68 64 62 61 55 56 57 48 54 47 41 39 40 36 30 27 15 11 15 8 350 345 308 321 330 329 336 333 332 330 321 314
160 181 182 167 151 132 112 105 91 79 75 64 33 22 55 55 42 39 33 37 28 30 22 26 19 14 5 353 342 337 326 322 307 308 325 331 328 328 330 329 324 319 316
181 190 181 174 168 152 133 118 80 64 76 83 63 85 87 84 65 54 45 28 20 7 10 3 348 341 343 340 337 333 330 331 318 307 315 326 328 323 325 328 323 320 318
193 190 179 167 156 122 107 110 120 191 171 152 129 122 109 118 118 111 93 40 11 357 358 338 334 335 335 332 325 324 322 324 317 312 308 321 327 322 319 323 326 327 324
199 184 168 169 150 138 154 169 180 181 166 150 185 209 125 127 129 130 137 298 289 284 284 303 318 324 316 312 305 310 309 308 309 316 318 319 321 319 315 320 326 328 325
188 163 166 174 176 178 186 189 182 182 160 171 288 7 114 119 133 146 263 281 283 295 308 321 323 322 316 311 304 303 301 299 300 302 302 301 306 306 307 313 320 321 324
157 153 168 185 180 191 195 192 189 194 182 199 199 234 213 209 222 316 322 307 320 326 330 330 322 316 307 295 289 286 278 279 280 284 288 294 296 298 296 301 310 315 331
153 156 187 194 192 199 196 178 130 91 33 4 4 347 349 360 2 359 345 340 342 336 330 323 309 300 296 286 277 279 273 268 265 273 283 292 300 307 300 304 319 329 337
110 121 236 356 6 8 21 34 40 46 35 28 23 29 32 31 27 22 359 345 349 338 324 319 303 295 281 284 288 285 274 266 264 262 264 270 283 294 292 296 310 329 334
83 72 51 48 47 54 58 63 74 67 63 58 47 48 55 54 51 51 24 337 331 322 306 304 314 315 308 295 293 297 288 286 284 265 249 263 275 287 294 309 317 330 335
89 91 89 96 100 91 90 79 89 104 122 132 113 62 59 65 58 45 325 299 296 302 306 317 328 313 293 278 291 311 305 298 283 286 282 287 291 299 304 306 312 320 328
82 87 94 105 105 111 125 115 93 85 50 342 328 322 319 334 329 338 329 311 313 319 320 322 311 298 297 295 272 276 298 294 312 280 259 268 286 295 292 296 298 290 294
76 86 100 110 109 114 123 124 109 87 318 296 298 302 317 334 337 345 344 329 313 302 286 271 262 266 280 291 279 243 254 281 291 294 271 258 257 256 273 287 288 286 278
74 86 91 87 75 60 55 52 60 50 302 294 306 318 327 331 340 338 332 316 302 292 283 279 268 260 269 284 282 273 269 269 262 270 288 288 279 266 254 257 271 273 265
59 68 75 82 71 58 59 49 58 19 331 331 329 332 331 325 326 323 319 311 301 293 280 268 261 260 263 269 270 261 257 254 254 256 276 285 285 278 259 251 252 239 245